When you browse on this site, cookies collect data to enhance your experience and personalize the content and advertising you see.
Visit our Privacy Policy to learn more. By continuing to use the site, you agree to this use of cookies and data.
  • In Slovakia
  • List of Countries
  • For 7 days
  • Water Temperature
  • Satellite Maps
  • Weather Map
  • Weather Widgets
  • user-avatar
    Login

    Hourly Weather Giumri

    Today, 24 March, Sunday

    Time Temperature Precipitation Wind Pressure Humidity
    00:00 0°C° 0 mm 1 mps 628 mmHg 75%
    01:00 0°C° 0.1 mm 1 mps 628 mmHg 76%
    02:00 0°C° 0.1 mm 1 mps 627 mmHg 77%
    03:00 +1°C° 0 mm 1 mps 627 mmHg 80%
    04:00 +1°C° 0.6 mm 1 mps 627 mmHg 82%
    05:00 +1°C° 0.6 mm 1 mps 627 mmHg 85%
    06:00 +1°C° 0.6 mm 1 mps 627 mmHg 88%
    07:00 -1°C° 0.8 mm 2 mps 627 mmHg 87%
    08:00 +1°C° 0.8 mm 2 mps 627 mmHg 87%
    09:00 +1°C° 0 mm 2 mps 627 mmHg 86%
    10:00 0°C° 0.7 mm 3 mps 627 mmHg 85%
    11:00 -1°C° 0.7 mm 3 mps 627 mmHg 84%
    12:00 -2°C° 0.7 mm 4 mps 627 mmHg 84%
    13:00 -2°C° 0.4 mm 4 mps 627 mmHg 83%
    14:00 -1°C° 0.4 mm 4 mps 627 mmHg 82%
    15:00 -1°C° 0 mm 3 mps 626 mmHg 83%
    16:00 -1°C° 0.7 mm 3 mps 627 mmHg 84%
    17:00 -2°C° 0.7 mm 3 mps 627 mmHg 85%
    18:00 -2°C° 0.7 mm 3 mps 627 mmHg 86%
    19:00 -2°C° 0.4 mm 3 mps 628 mmHg 85%
    20:00 -4°C° 0.4 mm 3 mps 628 mmHg 85%
    21:00 -3°C° 0.4 mm 2 mps 628 mmHg 85%
    22:00 -4°C° 0.1 mm 2 mps 628 mmHg 85%
    23:00 -4°C° 0.1 mm 2 mps 628 mmHg 84%

    Tomorrow, 25 March, Monday

    Time Temperature Precipitation Wind Pressure Humidity
    00:00 -4°C° 0.1 mm 2 mps 628 mmHg 84%
    01:00 -5°C° 0 mm 2 mps 628 mmHg 83%
    02:00 -5°C° 0 mm 2 mps 628 mmHg 82%
    03:00 -5°C° 0 mm 2 mps 628 mmHg 81%
    04:00 -5°C° 0 mm 2 mps 628 mmHg 80%
    05:00 -7°C° 0 mm 3 mps 628 mmHg 80%
    06:00 -7°C° 0 mm 3 mps 628 mmHg 79%
    07:00 -5°C° 0 mm 3 mps 628 mmHg 78%
    08:00 -4°C° 0 mm 3 mps 628 mmHg 77%
    09:00 -1°C° 0 mm 3 mps 628 mmHg 76%
    10:00 0°C° 0 mm 3 mps 628 mmHg 76%
    11:00 0°C° 0 mm 4 mps 627 mmHg 77%
    12:00 +1°C° 0 mm 4 mps 627 mmHg 77%
    13:00 +1°C° 0 mm 4 mps 627 mmHg 77%
    14:00 +1°C° 0 mm 4 mps 627 mmHg 77%
    15:00 +1°C° 0 mm 5 mps 626 mmHg 77%
    16:00 +1°C° 0 mm 4 mps 627 mmHg 79%
    17:00 0°C° 0 mm 4 mps 627 mmHg 80%
    18:00 -1°C° 0 mm 4 mps 627 mmHg 81%
    19:00 -2°C° 0 mm 4 mps 627 mmHg 82%
    20:00 -1°C° 0 mm 3 mps 628 mmHg 83%
    21:00 -2°C° 0 mm 3 mps 628 mmHg 84%
    22:00 -2°C° 0 mm 3 mps 628 mmHg 85%
    23:00 -2°C° 0 mm 3 mps 628 mmHg 85%

    Day after tomorrow, 26 March, Tuesday

    Time Temperature Precipitation Wind Pressure Humidity
    00:00 -2°C° 0 mm 2 mps 628 mmHg 85%
    01:00 -2°C° 0 mm 2 mps 629 mmHg 86%
    02:00 -3°C° 0 mm 2 mps 629 mmHg 86%
    03:00 -3°C° 0 mm 2 mps 629 mmHg 86%
    04:00 -3°C° 0 mm 2 mps 629 mmHg 86%
    05:00 -3°C° 0 mm 2 mps 629 mmHg 86%
    06:00 -3°C° 0 mm 2 mps 629 mmHg 85%
    07:00 -1°C° 0 mm 2 mps 629 mmHg 82%
    08:00 +1°C° 0 mm 2 mps 630 mmHg 80%
    09:00 +2°C° 0 mm 2 mps 630 mmHg 77%
    10:00 +3°C° 0 mm 2 mps 630 mmHg 77%
    11:00 +4°C° 0 mm 2 mps 630 mmHg 77%
    12:00 +4°C° 0 mm 2 mps 630 mmHg 77%
    13:00 +5°C° 0 mm 2 mps 630 mmHg 76%
    14:00 +5°C° 0 mm 2 mps 629 mmHg 76%
    15:00 +5°C° 0 mm 2 mps 629 mmHg 75%
    16:00 +4°C° 0 mm 2 mps 629 mmHg 76%
    17:00 +4°C° 0 mm 2 mps 629 mmHg 77%
    18:00 +3°C° 0 mm 2 mps 629 mmHg 78%
    19:00 +2°C° 0 mm 2 mps 629 mmHg 80%
    20:00 +2°C° 0 mm 1 mps 629 mmHg 82%
    21:00 +2°C° 0 mm 1 mps 630 mmHg 84%
    22:00 +1°C° 0 mm 1 mps 629 mmHg 85%
    23:00 +1°C° 0 mm 1 mps 629 mmHg 85%

    27 March, Wednesday

    Time Temperature Precipitation Wind Pressure Humidity
    00:00 0°C° 0 mm 1 mps 629 mmHg 85%
    01:00 0°C° 0 mm 1 mps 629 mmHg 84%
    02:00 0°C° 0 mm 1 mps 629 mmHg 84%
    03:00 0°C° 0 mm 1 mps 629 mmHg 83%
    04:00 0°C° 0 mm 1 mps 629 mmHg 83%
    05:00 0°C° 0 mm 1 mps 629 mmHg 83%
    06:00 -1°C° 0 mm 1 mps 629 mmHg 83%
    07:00 +1°C° 0 mm 1 mps 630 mmHg 80%
    08:00 +3°C° 0 mm 1 mps 630 mmHg 77%
    09:00 +3°C° 0 mm 2 mps 630 mmHg 74%
    10:00 +4°C° 0 mm 2 mps 630 mmHg 74%
    11:00 +5°C° 0 mm 2 mps 630 mmHg 74%
    12:00 +6°C° 0 mm 2 mps 630 mmHg 73%
    13:00 +6°C° 0 mm 2 mps 630 mmHg 71%
    14:00 +6°C° 0 mm 2 mps 630 mmHg 69%
    15:00 +7°C° 0 mm 2 mps 631 mmHg 67%
    16:00 +6°C° 0 mm 2 mps 631 mmHg 68%
    17:00 +6°C° 0 mm 1 mps 631 mmHg 68%
    18:00 +5°C° 0 mm 1 mps 631 mmHg 69%
    19:00 +4°C° 0 mm 1 mps 631 mmHg 71%
    20:00 +3°C° 0 mm 1 mps 632 mmHg 73%
    21:00 +3°C° 0 mm 1 mps 632 mmHg 74%
    22:00 +2°C° 0 mm 1 mps 632 mmHg 75%
    23:00 +2°C° 0 mm 1 mps 632 mmHg 76%

    28 March, Thursday

    Time Temperature Precipitation Wind Pressure Humidity
    00:00 +1°C° 0 mm 1 mps 632 mmHg 77%
    01:00 +1°C° 0 mm 1 mps 632 mmHg 77%
    02:00 +1°C° 0 mm 1 mps 632 mmHg 77%
    03:00 0°C° 0 mm 1 mps 632 mmHg 77%
    04:00 0°C° 0 mm 1 mps 632 mmHg 76%
    05:00 0°C° 0 mm 1 mps 632 mmHg 75%
    06:00 0°C° 0 mm 1 mps 632 mmHg 73%
    07:00 +1°C° 0 mm 1 mps 633 mmHg 70%
    08:00 +3°C° 0 mm 1 mps 633 mmHg 67%
    09:00 +4°C° 0 mm 1 mps 634 mmHg 63%
    10:00 +5°C° 0.1 mm 1 mps 634 mmHg 65%
    11:00 +5°C° 0.1 mm 1 mps 633 mmHg 67%
    12:00 +6°C° 0.1 mm 1 mps 633 mmHg 68%
    13:00 +6°C° 0.3 mm 1 mps 633 mmHg 70%
    14:00 +6°C° 0.3 mm 1 mps 633 mmHg 71%
    15:00 +6°C° 0.3 mm 1 mps 632 mmHg 72%
    16:00 +5°C° 0.2 mm 1 mps 632 mmHg 74%
    17:00 +5°C° 0.2 mm 1 mps 632 mmHg 75%
    18:00 +4°C° 0.2 mm 1 mps 632 mmHg 77%
    19:00 +4°C° 0.2 mm 1 mps 633 mmHg 79%
    20:00 +3°C° 0.2 mm 1 mps 633 mmHg 81%
    21:00 +2°C° 0.2 mm 2 mps 633 mmHg 83%
    22:00 +1°C° 0.3 mm 2 mps 633 mmHg 83%
    23:00 +1°C° 0.3 mm 2 mps 633 mmHg 84%

    29 March, Friday

    Time Temperature Precipitation Wind Pressure Humidity
    00:00 +1°C° 0.3 mm 2 mps 633 mmHg 85%
    01:00 -1°C° 0.2 mm 2 mps 633 mmHg 85%
    02:00 -1°C° 0.2 mm 2 mps 633 mmHg 85%
    03:00 -1°C° 0.2 mm 2 mps 633 mmHg 85%
    04:00 -2°C° 0.2 mm 2 mps 633 mmHg 85%
    05:00 -2°C° 0.2 mm 2 mps 633 mmHg 85%
    06:00 -2°C° 0.2 mm 2 mps 633 mmHg 84%
    07:00 -1°C° 0.1 mm 2 mps 633 mmHg 80%
    08:00 +1°C° 0.1 mm 2 mps 633 mmHg 76%
    09:00 +3°C° 0.1 mm 1 mps 634 mmHg 72%
    10:00 +3°C° 0.1 mm 1 mps 634 mmHg 69%
    11:00 +4°C° 0.1 mm 1 mps 633 mmHg 67%
    12:00 +5°C° 0.1 mm 1 mps 633 mmHg 64%
    13:00 +5°C° 0.1 mm 1 mps 633 mmHg 64%
    14:00 +5°C° 0.1 mm 1 mps 633 mmHg 64%
    15:00 +5°C° 0.1 mm 1 mps 632 mmHg 64%
    16:00 +5°C° 0.1 mm 1 mps 632 mmHg 67%
    17:00 +3°C° 0.1 mm 2 mps 632 mmHg 69%
    18:00 +2°C° 0.1 mm 2 mps 632 mmHg 72%
    19:00 +2°C° 0.1 mm 2 mps 632 mmHg 75%
    20:00 +1°C° 0.1 mm 2 mps 632 mmHg 78%
    21:00 +1°C° 0.1 mm 2 mps 632 mmHg 80%
    22:00 +1°C° 0.2 mm 2 mps 632 mmHg 81%
    23:00 +1°C° 0.2 mm 2 mps 632 mmHg 81%
    Show more